This is the latest recevied weather packets stored in our database for station/object KM8V-8. If no packets are shown the sender has not sent any weather packets the latest 1 day(s).
| Time | Temp. | Humidity | Pressure | Rain* | Wind** | Luminosity | Snow |
|---|---|---|---|---|---|---|---|
| 1778045727 | 7.78° C | 99% | 1008.4 hPa | 1.02 mm | - | 0 W/m² | - |
| 1778045127 | 7.78° C | 99% | 1008.5 hPa | 1.02 mm | - | 0 W/m² | - |
| 1778044828 | 7.78° C | 99% | 1008.5 hPa | 0.76 mm | - | 0 W/m² | - |
| 1778044228 | 7.78° C | 99% | 1008.5 hPa | 1.02 mm | - | 0 W/m² | - |
| 1778043928 | 7.78° C | 99% | 1008.5 hPa | 1.02 mm | - | 0 W/m² | - |
| 1778043628 | 7.78° C | 99% | 1008.6 hPa | 1.02 mm | - | 0 W/m² | - |
| 1778043328 | 7.78° C | 99% | 1008.8 hPa | 0.76 mm | - | 0 W/m² | - |
| 1778043028 | 7.78° C | 99% | 1008.9 hPa | 0.76 mm | - | 0 W/m² | - |
| 1778042728 | 7.78° C | 99% | 1008.8 hPa | 0.76 mm | - | 0 W/m² | - |
| 1778042428 | 7.78° C | 99% | 1008.9 hPa | 0.51 mm | - | 0 W/m² | - |
| 1778041828 | 8.33° C | 99% | 1009 hPa | 0.76 mm | - | 0 W/m² | - |
| 1778040629 | 8.33° C | 99% | 1009.2 hPa | 1.02 mm | - | 0 W/m² | - |
| 1778040329 | 8.33° C | 99% | 1009.2 hPa | 1.27 mm | - | 0 W/m² | - |
| 1778040029 | 8.33° C | 99% | 1009.2 hPa | 1.52 mm | - | 0 W/m² | - |
| 1778039716 | 8.89° C | 99% | 1009.3 hPa | 1.78 mm | - | 0 W/m² | - |
| 1778039429 | 8.89° C | 99% | 1009.4 hPa | 2.03 mm | - | 0 W/m² | - |
| 1778039129 | 8.89° C | 99% | 1009.6 hPa | 2.29 mm | - | 0 W/m² | - |
| 1778038829 | 8.89° C | 99% | 1009.5 hPa | 2.54 mm | - | 0 W/m² | - |
| 1778038529 | 8.89° C | 99% | 1009.5 hPa | 2.79 mm | - | 0 W/m² | - |
| 1778037930 | 8.89° C | 99% | 1009.4 hPa | 3.56 mm | - | 0 W/m² | - |
| 1778037630 | 8.89° C | 99% | 1009.3 hPa | 3.56 mm | - | 0 W/m² | - |
| 1778037330 | 9.44° C | 99% | 1009.4 hPa | 3.81 mm | - | 0 W/m² | - |
| 1778037017 | 9.44° C | 99% | 1009.3 hPa | 4.06 mm | - | 0 W/m² | - |
| 1778036730 | 9.44° C | 99% | 1009.4 hPa | 4.06 mm | - | 0 W/m² | - |
| 1778036417 | 9.44° C | 99% | 1009.4 hPa | 4.06 mm | - | 0 W/m² | - |
* Rain latest hour (hover to see other rain measurements)
** Current wind speed in m/s (hover to see current wind gust speed)